Location: St. Louis
(38.6270°N, 90.1994°W)
Time: 09:38:25
(UTC-06:00)

Vanguard 2 Rocket - Pass Details

Date: 06 December 2021
Orbit: 553 x 3325 km, 32.9° (Epoch: 23 January)

Event Time Altitude Azimuth Distance (km) Brightness Sun altitude
Rises 22:34:27 0° 273° (W) 4,484 10.7 -66.9°
Enters shadow 22:34:37 - 273° (W) 4,443 10.7 -67.0°
Reaches altitude 10° 22:37:18 10° 264° (W) 3,832 - -67.4°
Maximum altitude 22:46:40 36° 203° (SSW) 3,191 - -68.7°
Drops below altitude 10° 23:01:08 10° 146° (SSE) 5,873 - -70.6°
Sets 23:06:53 0° 139° (SE) 7,141 - -71.3°
